Home > Weather > Westerstede > Past weeks

Flag for Germany Weather for the Past 2 Weeks in Westerstede, Lower Saxony, Germany

Now
43 °F

Quite cool.


Feels Like: 33 °F
Forecast: 40 / 45 °F
Wind: 23 mph from South

Location: Wittmundhaven

Current Time: Feb 8, 2016 at 5:31:00 AM

Latest Report: Feb 8, 2016 at 4:20 AM


Visibility: N/A

Pressure: 29.18 "Hg

Humidity: 81%

Dew point: 37 °F

Location of WesterstedeLocation

Historic Weather in Westerstede — Graph

°F

Westerstede Temperature Yesterday

Maximum temperature yesterday: 50 °F (at 8:20 AM)
Minimum temperature yesterday: 45 °F (at 8:20 PM)
Average temperature yesterday: 47 °F

High & Low Weather Summary for the Past Weeks

 TemperatureHumidityPressure
High54 °F (Jan 25, 2:20 PM)100% (Jan 24, 3:20 AM)30.42 "Hg (Jan 24, 3:20 AM)
Low34 °F (Feb 4, 10:20 PM)62% (Feb 2, 1:20 PM)29.21 "Hg (Feb 8, 3:20 AM)
Average45 °F85%29.87 "Hg
* Reported Jan 24 3:20 AM — Feb 8 3:20 AM, Westerstede, Weather by CustomWeather, © 2016

Note: Actual official high and low records may vary slightly from our data, if they occured in-between our weather recording intervals... More about our weather records

Advertising

Westerstede Weather History for the Previous 24 Hours

 ConditionsComfort  
Time TempWeatherWind HumidityBarometerVisibility
3:20 AM
Mon, Feb 8
43 °FQuite cool.24 mph81%29.21 "HgN/A
2:20 AM45 °FQuite cool.25 mph71%29.27 "HgN/A
1:20 AM43 °FQuite cool.20 mph71%29.33 "HgN/A
12:20 AM43 °FQuite cool.20 mph71%29.36 "HgN/A
11:20 PM
Sun, Feb 7
45 °FQuite cool.20 mph66%29.42 "HgN/A
10:20 PM45 °FQuite cool.21 mph71%29.42 "HgN/A
9:20 PM45 °FQuite cool.20 mph71%29.45 "HgN/A
8:20 PM45 °FQuite cool.20 mph71%29.45 "HgN/A
7:20 PM46 °FCool.18 mph66%29.45 "HgN/A
6:20 PM46 °FPassing clouds.18 mph66%29.45 "HgN/A
5:20 PM46 °FScattered clouds.15 mph66%29.45 "HgN/A
4:20 PM48 °FBroken clouds.18 mph71%29.45 "HgN/A
3:20 PM48 °FSprinkles. Partly sunny.20 mph71%29.42 "Hg6 mi
2:20 PM48 °FBroken clouds.17 mph71%29.42 "HgN/A
1:20 PM48 °FBroken clouds.18 mph76%29.39 "HgN/A
12:20 PM48 °FBroken clouds.20 mph76%29.39 "HgN/A
11:20 AM48 °FPartly sunny.13 mph82%29.39 "HgN/A
10:20 AM50 °FDrizzle. Partly sunny.21 mph76%29.36 "HgN/A
9:20 AM50 °FPartly sunny.16 mph71%29.33 "HgN/A
8:20 AM50 °FBroken clouds.16 mph71%29.36 "HgN/A
7:20 AM48 °FPartly cloudy.14 mph76%29.36 "HgN/A
6:20 AM48 °FCool.13 mph71%29.36 "HgN/A
5:20 AM48 °FCool.16 mph71%29.36 "HgN/A
Weather by CustomWeather, © 2016

See weather overviewHow to use our weather pages